Regional Weather Roundup
Issued by NWS

Home | Current Version | Previous Version | Graphics & Text | Print | Product List | Glossary On
Versions: 1 2 3 4 5 6 7 8 9 10 11 12 13 14 15 16 17 18 19 20 21 22 23 24 25 26 27 28 29 30 31 32 33 34 35 36 37 38 39 40 41 42 43 44 45 46 47 48 49 50
100
ASUS45 KBOU 010607
RWRCO

WEATHER ROUNDUP FOR COLORADO
NATIONAL WEATHER SERVICE DENVER/BOULDER CO
1200 AM MDT SUN MAY 01 2016

NOTE: "FAIR" INDICATES FEW OR NO CLOUDS BELOW 12000 FEET WITH NO
SIGNIFICANT WEATHER AND/OR OBSTRUCTIONS TO VISIBILITY.

COZ001>005-013-030-031-010700-
...NORTHWEST COLORADO...

CITY           SKY/WX    TMP DP  RH WIND       PRES   REMARKS
CRAIG          FAIR      36  23  59 E7        30.10S
HAYDEN         FAIR      34  19  55 E10       30.10S WCI  26
MEEKER         FAIR      38  23  55 NE18G25   30.03F
MOUNT WERNER   NOT AVBL
STEAMBOAT SPGS FAIR      33  20  60 N6        30.10S WCI  27
WALDEN         FAIR      28  19  69 NE3       30.18R
$$

COZ006>008-011-010700-
...WEST CENTRAL VALLEYS...

CITY           SKY/WX    TMP DP  RH WIND       PRES   REMARKS
GRAND JUNCTION FAIR      46  29  51 VRB6      29.94S
MONTROSE       FAIR      38  30  73 SE5       29.98R
EAGLE          CLOUDY    37  32  81 CALM      30.10S
RIFLE          FAIR      42  30  62 CALM      30.01S
DELTA          NOT AVBL
NUCLA          NOT AVBL
$$

COZ017>023-064>068-010700-
...SOUTHWEST COLORADO...

CITY           SKY/WX    TMP DP  RH WIND       PRES   REMARKS
DURANGO        FAIR      34  30  85 CALM      29.92S
CORTEZ         FAIR      34  32  92 NE7       29.91R WCI  28
PAGOSA SPRINGS MOCLDY    38  30  72 CALM      29.97S
TELLURIDE      FAIR      32  29  90 CALM      30.00S
WOLF CREEK PAS SNOW      21  21 100 NE13      30.10S VSB 1/4 WCI   9
$$

COZ009-010-012-014-032>034-037-058>063-010700-
...CENTRAL COLORADO...

CITY           SKY/WX    TMP DP  RH WIND       PRES   REMARKS
ASPEN          CLOUDY    34  28  79 N3        30.02S
BUENA VISTA    CLOUDY    30  22  71 CALM      30.15S
COPPER MTN     NOT AVBL
BERTHOUD PASS  CLOUDY     9   0  66 N9G29     30.12S WCI  -5
COTTONWOOD PAS FLURRIES  27  23  86 SE8       30.14R WCI  18
GUNNISON       FAIR      34  21  60 E15       30.03R WCI  24
KREMMLING      FAIR      32  21  64 NE6       30.15R WCI  26
LEADVILLE      CLOUDY    20  19  96 S12       30.09S WCI   8
SALIDA         CLOUDY    32  26  80 E6        30.22S WCI  26
SUNLIGHT       CLOUDY   N/A N/A N/A NE9       30.09S
WILKERSON PASS CLOUDY   N/A N/A N/A NE12G23   30.14S
$$

COZ069>075-010700-
...SAN LUIS VALLEY/SANGRE DE CRISTO MOUNTAINS...

CITY           SKY/WX    TMP DP  RH WIND       PRES   REMARKS
ALAMOSA        CLOUDY    33  26  75 E10       30.04R WCI  25
LA VETA PASS   SNOW      21  18  86 MISG      30.12R VSB 1/2
SAGUACHE       CLOUDY    36  28  75 NE7       30.05R
$$

COZ035-036-038>040-010700-
...NORTHERN COLORADO FRONT RANGE...

CITY           SKY/WX    TMP DP  RH WIND       PRES   REMARKS
DENVER INTL AP LGT SNOW  33  30  88 NW14      30.20R WCI  23
DMNS CITY PARK   N/A     35  32  91 N10       30.23R WCI  27
AURORA         CLOUDY    32  32 100 N15G22    30.21S WCI  22
FRONT RANGE AP NOT AVBL
ERIE MUNI ARPT CLOUDY    36  33  89 NW6       30.23R
BOULDER MUN AP CLOUDY    36  34  93 W5        30.23R
CENTENNIAL     LGT SNOW  32  31  96 N14       30.20R FOG     WCI  22
BROOMFIELD     FLURRIES  34  32  93 N10       30.22S WCI  26
FORT COLLINS   CLOUDY    36  32  87 N5        30.23R
LONGMONT       CLOUDY    39  33  80 N5        30.25R
$$

COZ041-046-047-076>085-087-088-010700-
...PIKES PEAK/PALMER DIVIDE AND SOUTHERN FOOTHILLS...

CITY           SKY/WX    TMP DP  RH WIND       PRES   REMARKS
COLO. SPRINGS  FLURRIES  33  26  75 N15G26    30.17S WCI  23
A. F. ACADEMY  FLURRIES  30  28  93 NW15G21   30.16S WCI  19
SCHRIEVER AFB  NOT AVBL
ELLICOTT       NOT AVBL
FALCON         CLOUDY    30  26  83 N17G28    30.16S WCI  18
FORT CARSON    FAIR      34  27  75 N18G28    30.14S WCI  23
LIMON          CLOUDY    32  30  92 NW31G39   30.12S WCI  17
MONUMENT HILL  CLOUDY    28  27  93 N17       30.17S FOG     WCI  16
TRINIDAD       CLOUDY    35  28  75 CALM      30.19R
$$

COZ042>045-048>051-090-091-010700-
...NORTHEAST COLORADO...

CITY           SKY/WX    TMP DP  RH WIND       PRES   REMARKS
GREELEY ARPT   CLOUDY    36  30  80 NW13      30.21S
AKRON          LGT SNOW  32  31  96 N23       30.12S FOG     WCI  19
BURLINGTON     CLOUDY    35  31  85 N24G33    30.05R WCI  23
WRAY           NOT AVBL
STERLING       CLOUDY    36  34  93 N15       30.13R
HOLYOKE        NOT AVBL
FORT MORGAN    LGT RAIN  35  32  90 NW14G22   30.17S WCI  25
$$

COZ086-089-092>099-010700-
...SOUTHEAST COLORADO...

CITY           SKY/WX    TMP DP  RH WIND       PRES   REMARKS
PUEBLO         MOCLDY    40  29  64 N13       30.16R
LA JUNTA       FAIR      37  31  78 N16       30.16R
LAMAR          CLOUDY    40  32  73 NW15      30.10S
SPRINGFIELD      N/A     36  30  79 NW16      30.12R
$$




USA.gov is the U.S. government's official web portal to all federal, state and local government web resources and services.